AEE767 LGAV-LGIR

Flight info

Callsign AEE767
Flight time 0h 34m
Altitude 290
Route LGAV/03R N0431F290 KEA1E KEA UL607 GIVIS T514 XAVIS XAVI1A LGIR/27
Aircraft A320/M-V/N

Departure

Time 2026-05-04 09:14
Airport Athens Eleftherios Venizelos International Airport (LGAV)

Arrival

Time 2026-05-04 09:49
Airport Heraklion International Nikos Kazantzakis Airport (LGIR)
Time Latitude Longitude Altitude Speed Heading
2026-05-04 08:55 37.93289 23.94535 302 ft 0 kts 308°
2026-05-04 09:07 37.93251 23.94564 301 ft 5 kts 185°
2026-05-04 09:08 37.93204 23.94572 301 ft 8 kts 169°
2026-05-04 09:08 37.93136 23.94588 301 ft 11 kts 167°
2026-05-04 09:08 37.93074 23.94657 301 ft 13 kts 144°
2026-05-04 09:08 37.92981 23.94649 302 ft 15 kts 208°
2026-05-04 09:09 37.92889 23.94561 301 ft 18 kts 220°
2026-05-04 09:09 37.92786 23.94453 302 ft 20 kts 219°
2026-05-04 09:09 37.92672 23.94338 305 ft 20 kts 217°
2026-05-04 09:09 37.92633 23.94302 303 ft 2 kts 218°
2026-05-04 09:10 37.92605 23.94277 303 ft 8 kts 208°
2026-05-04 09:10 37.92560 23.94281 305 ft 0 kts 127°
2026-05-04 09:10 37.92556 23.94287 305 ft 3 kts 127°
2026-05-04 09:11 37.92539 23.94315 305 ft 4 kts 127°
2026-05-04 09:11 37.92521 23.94346 306 ft 4 kts 127°
2026-05-04 09:11 37.92505 23.94374 307 ft 4 kts 127°
2026-05-04 09:11 37.92491 23.94403 308 ft 4 kts 109°
2026-05-04 09:12 37.92513 23.94479 308 ft 15 kts 35°
2026-05-04 09:12 37.92531 23.94497 308 ft 0 kts 37°
2026-05-04 09:14 37.93280 23.95205 294 ft 129 kts 37°
2026-05-04 09:14 37.94086 23.95960 701 ft 141 kts 32°
2026-05-04 09:14 37.94882 23.96698 1470 ft 143 kts 32°
2026-05-04 09:14 37.95713 23.97496 1910 ft 160 kts 36°
2026-05-04 09:15 37.96663 23.98410 2282 ft 183 kts 35°
2026-05-04 09:15 37.97515 23.99744 2642 ft 214 kts 66°
2026-05-04 09:15 37.97508 24.01734 3124 ft 246 kts 109°
2026-05-04 09:15 37.96434 24.03543 3705 ft 271 kts 141°
2026-05-04 09:17 37.81660 24.12754 10753 ft 339 kts 151°
2026-05-04 09:18 37.79503 24.14186 11034 ft 362 kts 151°
2026-05-04 09:18 37.77209 24.15715 11424 ft 379 kts 151°
2026-05-04 09:18 37.74855 24.17282 12130 ft 385 kts 151°
2026-05-04 09:18 37.72477 24.18858 12897 ft 389 kts 152°
2026-05-04 09:19 37.70064 24.20448 13689 ft 393 kts 152°
2026-05-04 09:19 37.67629 24.22045 14421 ft 396 kts 152°
2026-05-04 09:19 37.65167 24.23656 15058 ft 401 kts 152°
2026-05-04 09:19 37.62677 24.25289 15686 ft 405 kts 152°
2026-05-04 09:20 37.60168 24.26939 16315 ft 409 kts 152°
2026-05-04 09:20 37.57629 24.28609 16956 ft 413 kts 152°
2026-05-04 09:20 37.55077 24.30308 17612 ft 417 kts 150°
2026-05-04 09:20 37.52548 24.32147 18256 ft 421 kts 148°
2026-05-04 09:21 37.50052 24.34102 18843 ft 425 kts 147°
2026-05-04 09:21 37.47555 24.36134 19427 ft 429 kts 146°
2026-05-04 09:21 37.45046 24.38190 20009 ft 433 kts 146°
2026-05-04 09:21 37.42509 24.40243 20750 ft 431 kts 147°
2026-05-04 09:22 37.39979 24.42260 21392 ft 434 kts 147°
2026-05-04 09:22 37.37393 24.44298 21753 ft 442 kts 148°
2026-05-04 09:22 37.34769 24.46346 22219 ft 446 kts 148°
2026-05-04 09:22 37.32118 24.48410 22712 ft 450 kts 148°
2026-05-04 09:23 37.29446 24.50489 23217 ft 454 kts 148°
2026-05-04 09:23 37.26750 24.52586 23704 ft 458 kts 148°
2026-05-04 09:23 37.24034 24.54701 24098 ft 462 kts 148°
2026-05-04 09:23 37.21290 24.56842 24462 ft 466 kts 148°
2026-05-04 09:25 37.01214 24.72450 26674 ft 503 kts 149°
2026-05-04 09:25 36.98263 24.74737 27032 ft 507 kts 149°
2026-05-04 09:26 36.95209 24.77099 27384 ft 511 kts 149°
2026-05-04 09:26 36.92212 24.79414 27728 ft 515 kts 149°
2026-05-04 09:26 36.89109 24.81808 28084 ft 519 kts 149°
2026-05-04 09:26 36.86068 24.84158 28354 ft 525 kts 150°
2026-05-04 09:27 36.82906 24.86601 28636 ft 530 kts 149°
2026-05-04 09:27 36.79759 24.89035 28983 ft 534 kts 150°
2026-05-04 09:27 36.76597 24.91479 29159 ft 534 kts 149°
2026-05-04 09:27 36.73452 24.93911 29180 ft 532 kts 150°
2026-05-04 09:28 36.67173 24.98756 29181 ft 530 kts 150°
2026-05-04 09:28 36.64029 25.01170 28871 ft 531 kts 150°
2026-05-04 09:28 36.60891 25.03569 28364 ft 528 kts 150°
2026-05-04 09:29 36.57797 25.05930 27743 ft 529 kts 150°
2026-05-04 09:29 36.54614 25.08345 27016 ft 529 kts 152°
2026-05-04 09:29 36.51368 25.10490 26303 ft 528 kts 155°
2026-05-04 09:29 36.48089 25.12559 25613 ft 528 kts 156°
2026-05-04 09:30 36.44794 25.14583 24936 ft 528 kts 156°
2026-05-04 09:30 36.41500 25.16573 24278 ft 523 kts 156°
2026-05-04 09:30 36.38287 25.18505 23626 ft 518 kts 156°
2026-05-04 09:30 36.35030 25.20473 22843 ft 511 kts 156°
2026-05-04 09:31 36.31899 25.22380 22079 ft 506 kts 156°
2026-05-04 09:31 36.28725 25.24329 21341 ft 499 kts 155°
2026-05-04 09:31 36.25644 25.26231 20626 ft 491 kts 155°
2026-05-04 09:31 36.22652 25.28080 19937 ft 483 kts 155°
2026-05-04 09:32 36.19672 25.29916 19255 ft 474 kts 154°
2026-05-04 09:32 36.16700 25.31739 18580 ft 466 kts 154°
2026-05-04 09:34 35.98210 25.42993 13815 ft 428 kts 155°
2026-05-04 09:34 35.95553 25.44609 13057 ft 423 kts 154°
2026-05-04 09:34 35.92928 25.46207 12334 ft 418 kts 154°
2026-05-04 09:34 35.90334 25.47785 11619 ft 413 kts 154°
2026-05-04 09:35 35.87775 25.49337 10916 ft 408 kts 154°
2026-05-04 09:35 35.85240 25.50872 10240 ft 404 kts 154°
2026-05-04 09:35 35.82732 25.52389 9500 ft 399 kts 154°
2026-05-04 09:35 35.80261 25.53884 8753 ft 389 kts 154°
2026-05-04 09:37 35.65917 25.62558 5555 ft 295 kts 154°
2026-05-04 09:37 35.64054 25.63677 5282 ft 296 kts 154°
2026-05-04 09:38 35.62225 25.64747 5037 ft 295 kts 159°
2026-05-04 09:38 35.60236 25.65144 4778 ft 289 kts 187°
2026-05-04 09:38 35.58298 25.64580 4516 ft 279 kts 210°
2026-05-04 09:38 35.56771 25.63278 4253 ft 266 kts 231°
2026-05-04 09:39 35.55523 25.61659 4112 ft 256 kts 232°
2026-05-04 09:39 35.54319 25.60096 3979 ft 247 kts 232°
2026-05-04 09:39 35.53140 25.58570 3852 ft 238 kts 233°
2026-05-04 09:39 35.52020 25.57121 3723 ft 229 kts 232°
2026-05-04 09:40 35.50942 25.55726 3596 ft 221 kts 233°
2026-05-04 09:40 35.49905 25.54380 3469 ft 213 kts 234°
2026-05-04 09:40 35.48907 25.53084 3337 ft 206 kts 234°
2026-05-04 09:40 35.47927 25.51804 3211 ft 206 kts 233°
2026-05-04 09:41 35.46947 25.50521 3084 ft 205 kts 234°
2026-05-04 09:42 35.40191 25.41748 2509 ft 203 kts 233°
2026-05-04 09:43 35.39218 25.40488 2506 ft 204 kts 233°
2026-05-04 09:43 35.38245 25.39229 2510 ft 204 kts 233°
2026-05-04 09:43 35.37285 25.37985 2515 ft 203 kts 232°
2026-05-04 09:43 35.36301 25.36711 2515 ft 204 kts 232°
2026-05-04 09:44 35.35327 25.35448 2513 ft 205 kts 233°
2026-05-04 09:44 35.34360 25.34195 2377 ft 204 kts 233°
2026-05-04 09:44 35.33574 25.32812 2177 ft 190 kts 255°
2026-05-04 09:46 35.33543 25.23978 702 ft 127 kts 281°
2026-05-04 09:46 35.33672 25.22915 626 ft 125 kts 281°
2026-05-04 09:46 35.33741 25.21860 570 ft 123 kts 275°
2026-05-04 09:47 35.33782 25.20793 408 ft 130 kts 278°
2026-05-04 09:47 35.33855 25.19715 242 ft 125 kts 281°
2026-05-04 09:49 35.33892 25.18135 94 ft 7 kts 205°
2026-05-04 09:49 35.33874 25.18046 92 ft 17 kts 271°
2026-05-04 09:49 35.33884 25.17861 95 ft 24 kts 273°
2026-05-04 09:51 35.33861 25.17553 91 ft 0 kts 313°